Location: London
(51.5074°N, 0.1278°W)
Time: 23:16:20
(UTC+01:00)

DELFI C3 - Pass Details

Date: 02 October 2020
Orbit: 535 x 549 km, 97.4° (Epoch: 22 October)

Event Time Altitude Azimuth Distance (km) Brightness Sun altitude
Exits shadow 19:47:01 17° 115° (ESE) 1,411 ? -12.0°
Maximum altitude 19:49:14 29° 66° (ENE) 1,016 ? -12.4°
Drops below altitude 10° 19:52:41 10° 5° (N) 1,832 ? -12.9°
Sets 19:55:00 0° 355° (N) 2,733 ? -13.2°
